Theta_e
308 308 308 308 308 308 308 308 308 308 308 308 308 308 308 308 308 308 308 309 309 310 310 310 311 311 311 311 311 311 311 312 312 313 315 315 314 314 314 313 313 313 314 314 314 315 314 316 315 314 317 316 317 319 318 316 316 319 321 318 316 316 316 317 318 319 319 319 318 318 317 317 318 317 316 316 316 317 317 317 315 314 314 313 313 313 314 313
308 308 308 308 308 308 308 308 308 308 308 308 308 308 308 308 309 309 309 309 309 310 310 310 311 311 311 311 311 311 312 311 313 315 315 314 314 314 314 313 314 314 314 314 314 315 315 316 315 315 316 317 317 318 320 318 317 319 320 316 317 318 316 317 318 319 319 319 318 318 317 316 317 317 316 316 317 317 317 317 315 314 314 314 313 312 313 313
310 309 309 309 308 308 308 308 308 308 308 308 308 308 309 309 309 309 309 310 310 310 310 311 311 311 311 311 311 311 312 312 315 316 314 314 314 314 314 314 314 314 314 314 314 314 315 315 315 315 316 317 317 317 319 318 318 319 319 318 318 317 316 316 318 318 318 318 318 318 316 316 317 316 316 316 317 318 317 317 316 315 315 314 313 312 312 312
311 311 310 309 309 309 309 309 309 308 309 309 309 309 309 309 309 309 309 309 310 310 310 310 311 311 311 311 311 311 311 313 317 315 313 314 314 314 314 314 314 314 314 314 314 314 315 315 315 315 316 317 317 317 318 317 318 319 318 319 317 316 317 316 317 317 317 317 317 318 316 316 317 315 316 316 317 318 317 314 314 314 314 313 312 311 311 312
312 312 311 311 310 309 309 309 309 309 309 309 309 309 309 309 309 309 310 310 310 310 310 311 311 311 311 311 311 311 312 315 316 314 313 314 314 314 314 314 314 314 314 314 314 315 315 315 315 315 316 317 317 316 317 317 316 318 317 318 317 316 317 317 317 317 316 316 316 317 316 316 316 315 316 316 316 317 315 312 311 311 311 311 311 311 311 312
311 311 311 312 311 311 310 310 309 309 309 309 309 309 309 309 309 310 310 310 310 310 310 310 311 310 311 311 311 311 313 316 315 313 314 313 313 314 313 314 314 314 314 314 315 315 316 315 316 316 316 317 316 316 317 316 316 317 317 317 317 317 317 317 317 316 315 316 316 316 316 315 316 316 316 315 315 315 312 310 310 310 309 310 310 311 311 312
310 310 310 311 311 311 311 311 310 310 309 309 309 309 309 309 310 310 310 310 310 310 310 310 310 310 311 310 311 312 314 315 314 313 314 313 313 313 313 313 313 314 314 315 315 316 316 315 316 316 316 316 316 316 316 317 317 317 318 318 317 317 317 317 316 315 315 315 316 316 315 315 316 316 315 314 313 312 311 310 310 310 310 310 311 311 311 312
309 309 310 310 310 311 311 311 311 311 310 310 310 309 309 309 310 309 310 310 310 310 310 310 310 310 311 310 312 315 316 315 314 312 313 313 313 313 313 313 314 314 314 316 316 316 316 316 316 315 317 317 317 317 316 316 318 318 318 318 317 316 316 316 316 315 315 315 315 314 314 315 316 315 314 314 312 310 310 310 310 310 310 310 311 311 311 312
308 308 309 309 309 310 310 311 311 311 311 310 310 310 310 310 310 310 310 310 310 310 310 310 310 310 310 310 313 315 315 316 314 313 313 313 314 314 314 314 315 315 316 317 317 316 315 316 316 315 316 317 316 317 316 317 318 318 317 317 317 316 316 316 316 316 315 315 315 314 315 316 315 314 314 312 310 309 309 309 310 310 310 310 310 311 311 311
308 308 308 308 308 308 309 310 310 311 311 311 311 310 310 310 310 310 310 310 310 310 310 310 310 310 310 311 314 315 316 316 314 314 315 315 316 316 317 317 317 317 317 317 317 316 316 316 315 315 316 317 316 317 316 316 316 316 316 316 316 317 317 316 316 316 316 315 314 314 316 317 313 313 314 311 309 309 309 310 310 310 310 310 310 310 311 311
308 308 308 307 307 307 307 308 308 309 310 310 310 310 310 310 310 310 310 310 310 310 310 309 309 310 310 312 315 316 317 316 315 315 315 316 317 318 319 319 319 318 318 318 317 316 315 315 314 314 316 317 317 316 316 315 315 315 315 316 317 317 317 317 317 317 316 315 314 314 316 315 312 313 314 311 309 310 311 311 310 310 310 310 310 310 310 311
308 308 307 307 307 307 307 307 307 307 308 309 309 309 310 310 309 309 309 309 309 309 309 309 309 310 311 313 315 316 316 315 314 314 315 316 317 317 318 319 319 319 318 317 317 317 315 314 313 315 316 317 317 317 316 314 314 315 315 316 318 318 318 318 317 315 315 315 313 314 315 315 313 313 313 310 309 311 312 311 310 310 310 310 310 310 310 310
307 307 307 307 307 307 307 307 307 306 307 307 308 308 308 308 308 308 309 309 309 309 309 309 311 312 313 315 316 315 315 314 314 315 315 316 316 317 318 318 319 318 317 317 317 317 316 313 314 315 315 317 318 316 315 314 315 316 316 316 317 319 319 317 315 314 314 314 313 314 316 316 315 314 313 310 310 311 312 312 311 310 309 309 309 309 310 309
307 307 307 307 307 307 308 307 307 307 307 307 307 307 307 307 308 308 308 309 309 310 311 312 314 314 315 316 316 315 315 316 316 317 316 316 317 317 318 318 318 317 317 316 316 316 315 313 314 315 315 316 317 315 315 316 315 316 317 317 318 319 318 316 315 315 315 314 313 314 316 318 316 314 312 311 311 312 313 313 312 311 310 309 309 309 309 309
307 307 307 307 307 308 308 308 308 307 307 307 307 307 307 307 308 309 310 310 312 313 314 315 315 316 317 317 316 316 316 317 317 318 317 317 317 317 317 317 317 316 316 316 315 315 314 314 315 316 316 315 315 315 317 318 317 317 317 318 319 319 318 316 315 315 316 314 313 314 316 318 315 313 313 311 311 312 314 314 312 311 310 309 309 308 309 309
307 307 308 307 308 308 308 308 308 308 307 307 308 308 308 309 311 312 313 314 315 316 316 315 315 316 318 318 317 317 318 318 318 318 318 317 317 317 317 316 316 316 315 315 315 315 315 315 316 316 316 315 316 317 318 319 319 319 317 318 320 319 319 318 315 315 316 315 315 315 316 318 315 313 312 311 311 312 313 314 312 311 310 309 309 308 308 308
307 308 308 308 308 308 308 308 308 308 308 308 309 310 311 313 314 315 316 316 316 316 315 315 316 317 317 318 317 317 318 318 318 318 318 317 316 316 316 315 315 315 315 315 315 315 315 316 315 316 316 316 317 318 318 319 319 319 319 319 319 319 319 317 315 315 315 315 316 316 316 317 316 314 312 311 312 313 313 313 312 311 309 309 309 308 308 308
308 308 308 308 308 308 308 308 308 308 308 309 310 312 314 315 316 316 316 316 315 315 315 316 317 318 318 318 318 318 318 318 318 318 318 317 316 315 315 315 315 315 315 315 315 315 316 316 316 317 318 317 317 318 318 319 319 319 320 319 319 319 318 317 317 315 315 315 316 317 316 317 317 315 313 312 311 312 314 313 311 310 309 309 308 308 308 307
308 308 308 308 308 307 308 308 308 309 310 310 312 313 315 315 316 316 315 315 316 317 317 317 317 317 318 319 318 318 318 317 317 317 317 317 316 315 315 315 315 315 316 316 316 316 316 317 317 317 319 318 318 318 319 320 320 319 320 319 318 318 318 318 318 315 315 316 316 317 317 318 318 316 314 312 311 312 313 312 310 310 309 308 308 308 308 307
308 308 308 308 308 308 308 308 309 311 311 312 313 314 315 317 318 318 317 315 316 318 318 319 318 318 319 318 317 317 317 317 317 316 317 316 316 315 315 315 316 316 317 318 317 316 316 318 318 318 319 320 319 318 319 319 319 318 319 318 318 317 317 319 317 314 315 316 316 318 317 317 318 317 315 312 311 312 312 311 311 310 309 308 308 308 307 306
308 308 308 308 308 308 309 310 311 312 314 314 314 315 317 319 319 320 319 318 318 318 318 319 319 319 319 317 317 317 316 316 316 316 316 316 315 315 316 315 316 316 317 318 318 315 316 318 319 319 319 319 319 319 318 318 317 317 317 317 318 318 318 319 316 313 314 315 316 318 317 317 317 318 316 313 312 312 312 312 311 310 309 308 308 307 307 306
308 308 308 309 309 310 312 313 313 314 315 315 314 315 317 318 318 318 318 319 320 319 318 318 318 318 318 317 317 316 316 316 316 316 316 315 315 316 317 316 316 317 317 317 317 316 317 318 318 319 319 318 317 317 317 317 317 317 317 317 317 318 318 319 316 313 313 314 317 317 317 317 317 318 316 313 313 313 312 312 311 310 308 308 307 307 306 306
312 310 309 310 311 311 313 316 316 316 315 315 315 315 316 317 317 316 316 318 320 320 319 318 318 317 317 317 317 316 316 317 317 317 316 315 316 316 317 316 316 318 317 316 317 318 319 318 318 319 318 317 316 316 316 316 316 317 317 317 317 318 319 318 316 314 313 314 316 316 316 317 317 318 315 313 313 311 309 309 309 308 308 308 307 306 306 306
315 313 312 312 312 312 315 318 318 317 316 315 315 315 316 317 317 316 317 318 319 320 319 318 317 318 317 317 316 316 316 317 318 318 316 316 316 316 317 317 317 318 317 317 317 318 319 318 318 318 317 316 316 316 315 316 316 317 318 318 318 318 318 318 317 315 314 315 314 315 317 318 318 319 316 311 309 309 307 307 307 306 306 306 305 305 305 306
316 316 315 314 313 314 317 319 318 317 316 316 316 316 315 317 317 316 317 318 319 320 319 318 317 317 317 317 316 316 316 316 317 318 317 316 316 317 317 317 317 317 317 317 316 318 318 316 316 317 316 316 317 316 316 317 317 318 318 318 317 317 318 318 318 317 317 319 315 315 320 321 319 320 318 311 308 308 307 307 307 306 305 304 304 304 304 304
316 316 316 315 315 316 317 317 317 316 315 316 317 315 315 317 318 316 315 317 319 320 319 319 319 318 317 317 316 316 316 316 316 317 317 316 316 316 316 316 316 317 317 317 317 318 317 315 315 317 316 316 317 316 317 317 317 318 319 318 317 318 318 318 318 318 319 321 316 314 319 322 319 319 318 313 310 309 307 307 308 306 305 304 304 304 304 303
317 317 316 316 317 318 318 317 317 316 315 316 316 315 315 317 316 315 316 319 322 321 320 320 319 319 318 317 316 316 317 317 316 316 316 316 315 315 315 316 315 315 316 317 318 318 316 314 316 317 317 318 317 317 317 317 317 320 319 318 318 318 318 319 319 318 319 320 316 314 317 320 320 320 317 314 313 312 309 307 308 307 305 305 304 304 303 303
317 317 316 316 317 319 319 318 318 317 316 316 316 314 315 316 316 315 318 322 325 322 321 319 317 317 318 317 316 317 316 316 316 316 315 315 315 314 315 316 316 315 315 317 318 319 316 316 317 317 317 318 318 318 318 317 318 319 316 316 317 317 318 318 318 319 318 319 319 317 317 319 320 319 316 314 314 315 313 310 308 307 306 305 304 304 303 302
318 316 317 317 316 317 318 319 318 317 316 316 315 314 315 316 316 317 319 322 324 321 319 318 316 316 316 316 317 316 315 314 315 314 313 314 314 314 314 315 317 316 315 316 318 319 316 314 315 317 317 318 316 315 317 318 318 316 314 315 316 316 317 317 318 318 317 318 319 319 318 319 321 319 317 315 315 317 316 312 310 308 307 305 304 303 302 302
320 317 317 319 318 317 317 318 317 317 315 315 315 314 315 316 316 319 320 323 324 321 317 316 316 316 316 316 316 315 315 314 313 312 312 313 313 313 314 315 316 316 315 315 317 316 312 311 312 315 316 316 313 310 312 315 315 314 315 316 316 316 315 316 316 316 318 319 320 319 319 320 320 320 319 318 316 317 316 313 311 309 307 305 304 303 302 303
321 318 317 319 320 318 318 318 316 316 314 314 315 315 316 318 319 322 323 322 322 320 315 315 316 317 317 318 318 316 315 314 312 313 313 312 312 313 314 315 315 316 316 316 316 316 313 313 313 313 313 313 313 312 310 311 313 315 316 317 318 317 316 316 317 316 319 322 319 317 318 320 320 320 318 316 314 315 315 313 311 309 307 305 304 303 302 303
322 320 317 318 319 318 318 318 316 314 313 314 316 316 318 320 321 324 323 319 320 321 318 317 316 317 317 319 320 316 314 314 313 314 314 313 314 313 314 316 316 318 319 318 318 318 316 315 315 313 311 312 315 314 311 311 312 315 316 317 319 321 319 320 320 318 320 321 315 313 316 319 319 319 317 316 313 312 313 313 311 308 307 305 304 303 302 302
323 321 318 317 317 318 318 317 315 314 313 314 317 317 319 320 321 323 321 320 321 320 318 318 317 318 319 320 320 317 315 316 314 314 315 315 316 315 315 316 317 320 322 321 319 319 319 317 315 314 312 312 315 316 315 313 313 315 317 318 320 323 323 323 323 321 322 318 312 312 315 317 318 318 316 314 311 309 309 310 311 309 307 305 303 303 302 303
322 322 320 318 317 317 317 316 315 314 314 316 317 318 320 320 321 322 321 321 320 317 316 317 317 319 319 320 319 316 317 317 313 314 316 316 317 317 317 316 317 319 320 321 321 320 322 321 318 316 315 313 314 317 318 316 314 314 317 318 320 323 324 324 323 322 322 317 312 313 315 318 319 316 312 309 307 307 307 307 309 308 306 305 303 302 302 303
322 322 321 320 318 317 316 316 315 314 314 317 318 318 319 320 321 321 321 320 318 316 316 317 318 320 321 320 317 316 318 318 314 314 315 317 318 318 318 317 317 318 320 321 322 320 322 323 318 315 314 314 315 316 317 317 315 315 316 317 319 320 320 319 317 317 317 316 315 314 315 318 316 312 308 307 306 306 306 306 307 307 306 304 303 302 303 303
323 322 321 320 319 318 317 316 316 314 315 317 318 318 319 320 321 320 320 320 319 317 316 317 319 320 321 321 317 316 318 317 315 315 316 317 318 318 319 319 317 317 319 321 322 321 322 322 315 312 312 312 314 315 315 317 317 316 315 317 316 316 316 316 315 313 313 318 319 316 316 317 315 313 308 307 307 306 305 306 306 306 305 304 303 303 303 303
323 322 321 320 320 319 317 316 316 315 315 317 319 319 318 319 321 321 320 320 319 318 317 319 320 320 321 322 319 317 317 317 316 316 317 317 318 318 318 319 318 317 318 320 321 321 322 320 314 312 314 311 309 312 313 313 315 315 315 316 315 314 315 316 318 317 316 320 321 317 318 318 318 317 311 308 309 308 306 306 306 306 305 304 304 303 303 303
322 321 320 320 320 320 318 317 316 315 315 317 318 318 318 319 320 321 320 319 318 318 319 320 320 320 321 322 321 318 317 318 317 316 318 318 318 319 317 318 318 317 317 319 320 320 321 321 315 312 313 310 307 311 314 311 311 313 314 315 315 316 317 316 318 320 320 322 321 319 318 318 319 318 314 311 311 310 307 306 305 305 305 304 304 304 303 303
320 319 318 319 319 319 318 317 316 315 315 317 317 317 318 319 320 321 320 318 318 319 319 320 320 320 321 321 321 319 317 319 318 317 319 319 318 319 317 317 318 317 317 317 318 318 319 321 318 312 311 311 309 312 314 313 311 310 312 314 315 316 317 317 318 319 320 322 322 321 318 317 319 318 317 316 314 311 309 306 305 306 305 305 305 304 303 303
320 318 318 319 319 319 318 316 315 315 315 316 316 315 316 317 319 320 320 319 319 319 319 321 321 320 320 320 321 319 317 319 318 317 319 319 318 318 317 317 318 317 317 317 317 318 317 319 320 313 309 311 311 312 315 315 312 311 312 314 314 314 314 315 317 317 317 319 321 321 320 319 316 315 316 316 315 313 310 307 307 307 306 305 305 305 304 303
319 318 318 319 319 318 317 315 315 315 315 315 315 315 315 317 318 319 319 319 319 318 319 321 323 323 322 321 321 320 318 319 318 318 319 318 318 319 317 317 318 317 316 316 316 318 317 318 318 314 310 312 314 313 313 314 314 313 314 314 315 315 314 316 318 316 315 317 319 320 321 320 314 311 312 312 312 312 311 309 308 308 307 306 305 305 304 303
319 318 319 319 319 318 316 315 315 315 314 314 314 314 315 316 317 318 320 319 319 319 318 319 322 323 323 322 322 321 319 319 319 318 319 318 319 319 316 314 316 316 315 315 316 317 317 317 317 315 313 313 313 311 310 310 312 313 314 315 316 315 315 318 320 317 314 315 316 316 318 318 312 307 308 308 308 309 310 310 310 309 307 306 305 305 304 303
318 319 319 318 318 318 316 316 316 315 314 313 314 313 314 315 316 318 319 318 318 319 318 318 319 321 322 321 321 321 319 318 319 319 319 319 318 316 312 312 314 315 315 316 316 315 314 316 318 317 315 313 312 311 310 309 311 313 313 313 315 316 316 317 317 316 316 316 316 316 319 318 310 305 306 307 306 306 307 308 310 309 308 307 306 305 304 303
317 317 317 317 318 318 317 317 316 314 313 314 314 314 314 315 316 317 318 318 319 319 319 319 319 320 321 320 319 319 318 318 319 318 318 320 316 311 309 311 313 315 315 315 317 316 315 316 318 319 318 317 315 314 313 311 311 312 313 313 314 316 317 315 314 314 316 318 318 318 320 318 311 306 306 306 306 306 306 306 308 308 308 306 305 304 304 303
315 315 315 316 317 317 317 317 316 314 313 314 314 314 315 315 316 316 317 318 319 319 319 320 319 320 320 319 318 318 318 319 320 318 317 318 315 309 308 309 311 314 314 313 315 317 316 317 318 319 321 321 320 319 317 315 312 312 314 314 314 316 315 314 314 315 317 318 318 318 319 317 311 308 308 307 307 307 307 305 305 306 306 306 305 304 303 303
314 315 315 314 315 315 315 316 316 316 315 315 315 315 315 315 316 317 316 317 318 318 319 319 318 319 320 319 319 319 318 318 319 318 317 317 314 310 307 308 309 312 312 311 313 314 315 318 319 319 320 320 318 318 318 316 314 313 314 314 314 315 315 314 315 316 317 317 317 318 318 317 313 309 309 309 308 308 308 306 305 305 305 305 304 304 303 303
312 315 315 314 315 314 313 313 315 317 317 316 316 316 316 316 316 316 317 317 317 317 318 318 317 319 319 319 320 320 319 317 316 316 317 316 312 308 307 307 309 310 310 311 312 313 314 316 318 319 319 317 314 314 316 316 316 315 315 314 314 314 314 315 315 316 317 317 317 318 317 318 316 312 311 311 309 309 310 308 306 305 305 304 304 303 303 302
311 312 312 313 315 315 314 314 314 316 317 316 316 317 316 316 317 317 317 317 317 317 318 317 316 318 319 319 320 320 319 318 316 315 316 315 312 310 308 309 309 308 309 311 311 313 315 315 317 318 318 317 315 313 314 316 316 316 315 315 314 313 313 314 314 315 317 317 317 317 316 317 317 314 313 313 311 310 310 309 307 306 305 303 303 303 302 302
308 309 309 310 312 312 312 312 312 314 315 316 316 317 317 317 316 316 316 316 316 316 317 317 317 317 318 319 320 319 318 317 316 314 314 314 313 311 311 312 310 306 308 312 312 312 314 315 316 317 317 317 316 314 314 314 314 314 315 315 315 315 314 313 313 314 315 316 316 316 316 316 315 314 314 313 312 311 309 308 307 306 304 303 303 302 302 302
307 307 307 307 308 307 308 309 312 313 312 313 314 315 316 317 317 316 316 316 317 316 316 317 317 317 317 318 319 319 317 317 317 315 313 313 312 311 312 313 311 307 308 312 313 312 313 315 315 315 316 316 314 312 312 313 313 313 314 314 315 315 315 313 313 313 314 315 314 315 315 315 314 314 312 310 309 309 308 307 307 306 305 304 303 303 304 305
307 307 307 307 307 307 306 308 311 312 311 310 311 312 313 315 316 316 315 313 314 315 315 317 317 316 316 317 318 318 315 314 315 313 311 312 313 312 312 312 310 308 308 310 312 311 312 313 312 313 316 316 312 310 311 311 312 313 313 313 314 315 315 313 312 313 313 314 314 314 315 314 313 313 311 308 307 308 308 308 307 306 305 305 305 306 306 307
306 306 306 307 308 307 306 306 308 310 312 310 310 311 311 312 314 316 315 311 310 312 313 315 316 315 314 314 316 316 313 311 311 311 310 311 312 311 311 311 310 310 309 309 310 310 310 312 312 313 316 313 308 308 310 310 313 314 313 314 313 313 314 313 313 313 313 313 314 314 314 313 312 312 310 308 307 308 309 309 308 306 306 306 306 306 306 306
Wind_Speed
7 7 7 6 6 6 6 6 6 6 6 5 5 5 5 5 5 5 5 4 4 3 3 2 1 1 3 4 4 5 5 5 7 7 5 5 5 3 3 4 5 5 5 5 6 5 3 1 2 3 3 2 2 2 2 4 2 2 2 3 2 1 2 2 2 2 3 5 6 4 2 3 1 2 0 4 5 5 6 2 4 1 1 1 3 6 9 11
7 6 6 6 6 6 5 5 5 5 5 5 5 5 5 5 5 5 4 4 3 2 2 1 2 2 4 4 5 5 5 7 7 5 5 4 1 4 7 8 7 6 6 8 7 3 2 2 2 2 2 1 2 2 1 2 2 2 2 3 0 3 3 3 2 4 2 3 4 3 1 3 3 2 2 4 4 5 7 4 8 5 4 2 6 8 8 7
6 6 6 6 5 5 5 5 5 5 5 5 5 5 5 5 5 4 4 3 3 3 2 3 3 3 4 5 6 5 5 7 4 1 3 2 5 8 10 8 7 5 6 8 8 4 2 2 2 2 3 2 2 1 1 1 1 1 2 3 3 4 4 3 2 4 3 2 1 1 1 4 3 2 3 4 7 7 3 3 4 4 5 5 9 8 4 3
7 7 7 6 6 6 6 6 6 6 6 6 6 6 6 6 5 5 5 4 4 4 4 3 4 4 4 5 6 5 7 7 2 3 1 4 7 8 7 5 3 2 5 9 9 7 4 2 1 1 4 2 2 1 0 1 2 1 3 2 5 3 3 5 3 3 3 1 2 1 1 4 2 2 5 5 8 5 5 7 3 2 3 5 8 5 1 2
8 8 8 8 8 8 8 7 7 7 7 7 7 7 6 6 6 6 5 5 5 4 4 4 4 5 5 5 6 6 7 4 3 3 3 6 5 5 3 1 2 5 8 10 9 8 4 1 1 1 4 2 2 2 2 2 2 2 0 3 4 1 1 6 4 2 2 1 2 3 3 2 1 5 6 6 7 1 5 3 3 3 5 5 4 2 0 1
9 9 10 10 10 10 10 9 9 8 8 8 7 7 7 7 6 6 6 5 5 5 5 5 5 5 6 5 6 6 6 4 2 3 4 5 4 3 4 5 6 8 10 9 7 5 2 1 3 3 3 2 2 2 2 2 2 2 2 3 2 1 1 4 4 3 3 3 4 4 3 2 5 7 5 4 4 1 1 4 3 3 3 2 1 1 1 2
10 10 11 11 11 11 11 11 10 10 9 8 8 7 7 7 7 6 6 6 6 6 6 5 6 6 6 6 6 5 5 5 3 5 5 5 6 6 8 9 10 10 9 7 4 4 2 3 4 3 4 2 2 1 2 1 3 4 1 5 3 2 2 2 4 4 4 6 6 4 3 6 9 6 3 3 2 4 6 5 3 1 2 2 1 0 1 2
11 11 12 12 13 12 12 12 12 11 10 10 9 8 8 8 7 7 6 7 6 7 6 6 6 6 6 6 5 5 6 6 6 7 8 9 10 11 12 12 11 10 7 5 4 4 3 5 4 3 4 1 0 1 1 2 5 5 2 4 3 3 4 3 4 6 7 8 7 5 7 9 9 4 4 4 3 5 5 3 2 1 2 2 1 1 2 2
13 12 12 13 14 13 13 13 12 12 12 11 10 9 9 9 8 8 7 7 7 8 7 7 7 6 7 5 4 5 5 5 6 6 8 9 10 11 12 11 11 8 7 5 4 4 3 4 3 3 4 2 1 1 1 4 3 1 2 1 2 4 5 6 7 8 8 8 7 7 10 9 6 4 4 5 5 5 4 3 2 2 1 1 2 3 2 2
14 13 13 13 13 13 14 14 13 13 12 12 11 11 10 10 9 9 9 8 8 9 8 8 7 7 7 4 4 5 4 5 5 4 6 8 8 8 8 9 8 6 5 5 3 3 4 4 3 4 4 1 1 0 1 3 2 2 3 3 6 7 7 7 9 8 7 7 8 8 10 5 6 6 4 6 7 6 5 3 3 3 1 3 3 2 2 2
15 14 14 13 13 13 13 13 13 13 13 13 12 12 11 11 11 10 10 10 9 9 9 9 8 8 7 4 6 6 4 6 6 5 6 7 7 7 7 7 6 4 4 4 3 4 5 5 4 4 3 1 2 2 2 2 2 2 4 7 9 9 10 11 10 8 6 5 8 9 7 3 7 6 3 8 9 7 6 5 4 4 4 4 4 3 2 2
17 15 14 13 13 12 12 12 13 13 13 13 13 13 12 12 12 11 11 11 10 10 10 9 8 8 7 6 11 12 10 11 11 10 9 8 9 9 8 8 7 6 4 3 5 5 5 5 5 4 2 1 1 2 1 1 1 2 4 7 7 9 10 10 7 5 5 3 5 6 6 6 9 6 7 9 9 9 7 5 4 4 4 4 4 3 2 2
18 16 15 14 13 12 12 12 13 13 13 14 13 13 13 12 12 12 12 11 11 11 10 9 9 8 7 8 12 14 13 14 15 14 13 12 12 11 10 10 9 8 6 6 7 7 6 6 6 4 3 4 3 1 1 2 2 4 5 5 7 9 7 6 5 4 5 4 7 6 5 5 10 9 9 9 10 10 8 6 5 4 3 3 3 2 2 1
18 17 15 14 13 12 13 13 13 13 13 13 13 13 13 12 12 12 12 11 11 10 10 9 8 8 7 9 13 16 15 15 14 14 14 13 13 13 12 12 11 11 10 9 8 7 7 7 7 5 5 4 1 1 2 3 4 4 4 4 5 7 2 7 6 5 6 5 8 7 5 2 9 10 8 9 11 10 8 7 6 4 3 2 2 1 0 1
18 17 16 15 13 13 13 13 13 13 13 13 12 12 12 12 12 11 11 11 10 10 10 9 8 7 7 10 14 16 15 15 16 17 15 14 14 12 13 14 13 12 10 8 7 7 8 7 6 5 2 2 2 2 5 5 5 4 4 5 5 4 2 7 5 4 3 4 8 8 5 2 8 10 8 9 11 10 8 7 6 5 4 3 2 3 2 1
18 17 17 16 15 15 14 14 13 13 13 13 12 12 12 12 11 11 11 10 10 10 8 8 8 7 6 9 13 14 14 15 16 16 16 16 14 13 14 13 10 9 8 7 7 7 8 6 4 4 2 3 4 4 5 5 5 5 5 6 5 5 4 4 4 3 3 3 8 9 6 2 6 10 9 9 10 9 8 7 6 5 5 4 3 3 3 1
18 17 17 17 17 16 15 15 14 13 13 13 12 12 11 11 11 11 11 10 10 9 8 7 6 7 9 10 12 13 16 16 15 14 14 16 16 15 13 9 7 8 7 7 7 7 7 6 4 4 5 5 5 4 5 5 6 5 5 5 6 7 7 3 3 5 5 4 6 8 8 8 4 12 11 10 10 9 9 8 7 6 5 5 4 3 3 3
19 18 18 18 18 17 16 16 14 13 13 13 12 11 11 11 11 11 10 10 8 6 7 8 6 4 9 13 12 11 14 14 13 14 13 13 15 13 10 8 7 8 8 7 7 8 7 5 4 4 5 6 6 6 6 7 7 6 4 4 6 6 7 7 2 6 7 5 6 7 9 11 6 11 12 11 11 9 8 8 7 6 6 5 5 4 4 3
19 19 19 19 18 17 17 17 15 13 13 13 12 11 10 9 9 10 11 10 9 6 4 8 12 5 3 8 12 13 13 11 10 13 13 13 14 12 10 9 8 10 9 6 7 9 7 5 4 5 7 8 9 9 10 11 8 7 6 5 8 6 6 7 1 6 4 4 7 9 10 12 10 8 12 11 10 9 8 7 7 7 7 6 5 5 5 4
19 19 19 19 18 17 17 16 15 14 13 13 11 9 7 6 5 7 11 15 17 15 11 9 12 11 5 4 8 11 10 9 9 11 14 14 12 11 10 9 9 9 8 6 6 7 7 6 6 8 10 10 11 13 14 11 6 6 7 7 9 8 8 8 2 6 2 3 7 10 11 13 13 9 10 12 10 9 10 9 9 8 8 7 7 6 6 6
20 20 20 19 18 17 17 16 15 15 14 13 13 10 6 5 5 3 6 13 18 20 21 18 15 15 12 9 9 9 7 8 9 12 13 13 13 11 10 11 9 7 9 8 4 4 5 8 10 13 13 9 7 10 12 9 5 7 8 8 9 7 9 8 2 5 3 3 7 10 12 12 13 13 8 14 11 11 13 12 11 10 9 8 8 8 7 7
19 20 20 19 18 16 15 15 15 15 13 13 15 14 10 9 10 7 4 9 13 15 20 22 23 21 19 16 15 12 10 8 10 14 15 15 16 12 11 13 9 7 8 7 4 3 6 9 13 14 9 3 1 3 8 9 8 8 7 7 8 6 8 7 3 5 3 3 5 7 10 11 12 13 8 13 10 9 10 9 9 10 10 9 8 8 8 8
19 20 20 19 18 15 13 14 17 17 15 15 17 18 15 11 11 10 8 9 11 16 20 22 26 25 21 21 20 17 14 12 11 16 19 18 17 14 12 12 11 9 9 10 8 7 7 8 12 13 6 5 5 5 6 7 7 8 7 7 7 6 7 6 3 4 4 4 5 6 9 10 13 12 7 8 6 6 6 6 6 7 8 8 8 9 8 8
18 19 20 19 17 14 13 15 19 19 17 17 19 19 16 10 8 7 7 9 10 14 19 22 24 24 22 21 23 21 17 16 14 15 22 22 17 13 12 12 12 10 9 13 13 13 11 3 4 10 8 8 9 7 8 7 6 9 10 8 8 8 8 7 2 0 4 7 5 6 9 9 11 13 8 6 4 5 6 7 7 7 7 6 8 9 8 8
17 18 19 18 16 14 15 18 21 21 18 19 20 18 15 10 6 2 3 7 10 8 12 17 19 22 24 22 21 18 15 18 16 14 21 25 19 11 9 11 11 10 12 15 13 15 12 2 5 8 8 9 10 8 9 8 7 8 11 12 11 11 9 9 5 3 6 6 4 4 7 5 4 9 8 7 5 7 8 9 9 9 8 7 8 9 9 10
17 18 18 17 15 15 17 19 21 21 19 20 18 14 15 11 6 2 0 4 8 5 6 11 13 13 18 21 20 15 7 13 17 16 20 25 22 14 7 8 8 8 10 11 9 7 4 5 6 8 8 9 9 9 10 9 8 7 4 8 11 11 9 9 6 3 5 5 2 3 7 5 2 4 6 8 7 8 9 9 11 11 10 10 10 9 9 11
18 19 17 15 16 19 20 17 17 18 16 16 15 13 14 12 8 4 2 6 8 7 10 9 10 11 12 17 24 17 2 7 16 17 22 25 23 16 10 8 7 6 4 5 6 3 6 8 6 7 8 9 9 9 9 10 8 4 2 2 6 7 8 8 7 6 6 5 1 5 6 7 7 5 6 8 7 9 10 10 11 12 12 13 12 11 11 11
21 20 18 17 20 23 24 21 18 17 15 11 10 14 15 14 11 6 2 7 4 7 9 7 9 12 12 16 26 16 4 10 11 11 23 27 22 13 11 12 9 8 9 8 7 2 6 10 10 10 10 8 7 5 7 11 8 2 3 2 2 2 5 6 6 6 5 5 5 7 6 6 8 4 5 6 6 9 11 11 12 14 15 15 14 13 13 13
24 22 22 21 21 23 26 27 23 19 16 9 8 16 19 17 11 5 1 5 2 5 4 7 10 10 13 17 20 11 5 5 1 7 20 23 20 11 6 11 11 10 13 14 11 1 2 4 6 10 10 7 4 4 2 7 5 3 5 5 5 2 1 3 5 5 4 6 8 8 9 6 7 4 6 4 5 9 9 9 12 15 17 16 15 15 14 16
27 25 25 25 25 26 28 29 27 23 17 12 13 20 22 17 8 4 4 4 3 2 5 9 10 10 15 15 11 8 7 3 4 11 13 10 15 10 1 5 7 7 8 11 11 2 4 2 1 4 4 2 6 8 6 2 4 8 7 5 4 3 2 3 4 3 5 8 9 10 13 10 6 4 6 3 1 3 6 8 10 14 17 16 15 15 15 18
31 28 28 30 32 31 31 32 30 24 16 14 18 25 21 9 2 5 7 2 2 2 6 7 8 12 18 14 8 10 9 4 8 13 9 5 10 9 5 5 5 5 6 8 8 4 4 3 1 2 2 4 7 5 5 4 4 6 5 4 4 3 3 3 4 4 7 9 4 3 7 11 8 4 2 3 3 3 4 7 12 14 16 16 15 15 15 18
34 33 31 34 35 34 34 34 28 20 18 19 24 26 15 3 3 8 6 3 1 6 9 9 9 12 17 13 8 11 10 7 11 12 8 8 8 10 10 9 8 6 6 8 7 5 6 7 6 4 3 6 7 4 4 2 3 5 5 6 5 4 4 5 5 6 7 5 2 2 1 6 8 8 5 3 6 4 3 4 12 16 17 16 15 15 16 20
38 37 34 34 36 37 37 34 25 19 23 25 27 21 7 4 8 12 9 5 1 2 7 10 11 13 16 13 7 9 8 6 11 11 9 10 8 9 12 12 12 8 5 6 8 5 4 6 8 7 3 9 12 8 5 4 6 8 8 7 7 6 6 7 7 7 6 2 2 1 3 4 6 7 6 2 7 6 6 5 9 16 18 17 17 16 19 24
39 37 35 35 35 37 39 36 27 22 26 30 25 14 6 7 9 9 12 10 1 3 4 8 12 13 14 10 6 10 7 4 10 10 7 10 9 9 12 14 17 11 3 5 7 7 6 4 9 11 6 12 16 10 7 7 8 10 8 7 8 7 7 7 6 6 4 2 2 2 3 4 4 2 1 4 6 5 6 7 9 14 16 17 18 18 23 27
31 32 35 38 37 37 38 37 29 26 32 33 19 8 10 10 8 7 10 10 4 3 4 7 11 11 11 7 5 10 6 3 10 10 6 10 9 9 11 12 16 13 7 7 5 7 10 5 5 6 4 14 16 8 5 7 7 7 6 6 8 5 4 3 1 1 1 1 2 4 4 4 2 3 4 5 5 5 6 7 10 13 16 17 17 19 25 29
26 31 36 41 42 39 39 38 32 31 38 32 11 7 13 9 4 5 8 10 9 7 8 8 8 7 9 6 5 10 5 2 10 9 6 10 10 11 11 9 15 16 12 9 4 5 8 3 5 4 2 8 8 4 5 4 4 6 6 6 4 0 1 1 1 2 1 5 4 6 5 4 2 3 5 6 5 6 5 7 11 13 15 17 16 19 27 32
29 35 39 43 46 43 41 41 36 36 39 26 11 9 10 7 4 3 3 5 9 13 10 7 8 8 10 7 7 12 8 4 10 8 6 8 8 12 13 9 14 20 18 12 5 4 6 2 3 5 3 2 2 1 3 2 1 4 6 6 4 2 2 2 4 2 4 8 4 6 8 7 5 4 4 6 7 8 7 7 10 13 15 16 16 20 28 33
31 35 39 44 47 45 44 43 40 41 34 17 13 13 8 7 9 3 1 1 5 13 10 9 9 10 11 9 8 13 12 7 10 9 7 7 6 11 15 10 12 20 23 15 5 3 6 3 2 3 2 3 2 2 4 1 1 0 1 4 4 2 5 5 5 5 6 8 5 6 9 8 7 5 5 8 10 10 10 9 9 13 16 18 18 21 27 32
28 27 30 40 46 45 45 45 45 42 24 9 11 13 7 8 11 7 4 2 2 7 12 11 10 9 10 11 9 13 14 10 11 9 8 7 5 10 16 12 10 18 24 18 5 3 5 4 3 2 2 5 4 5 8 7 3 1 2 4 2 2 4 5 5 4 5 7 6 4 5 5 7 7 9 12 12 12 12 11 10 14 17 19 20 22 29 35
29 18 16 28 39 44 46 45 43 32 13 8 11 10 7 9 12 13 12 7 3 4 7 8 10 11 11 12 10 10 11 10 10 8 8 9 6 7 14 14 10 14 21 18 7 3 4 3 3 2 3 5 5 7 10 10 9 6 6 7 5 3 1 2 4 3 2 5 6 6 5 3 2 3 5 7 8 11 13 11 11 15 18 19 20 26 35 41
28 12 9 19 26 37 47 38 27 17 8 9 10 8 8 6 9 16 16 12 8 5 3 2 5 6 5 8 8 8 8 8 10 8 6 9 9 6 8 10 10 13 13 10 8 6 5 5 5 4 5 7 4 2 3 4 7 9 9 10 10 7 5 4 5 3 1 3 3 5 7 2 2 2 3 3 3 5 10 10 10 14 18 21 21 26 35 41
23 9 11 19 19 32 43 24 10 11 10 11 9 7 8 4 4 13 15 13 12 7 3 2 3 3 2 3 3 3 6 6 8 8 6 8 10 5 3 3 7 15 12 6 8 7 2 3 6 4 5 5 1 2 2 3 4 5 6 7 8 8 8 7 6 4 3 3 1 2 5 2 2 3 4 5 5 5 5 7 9 11 16 20 20 21 27 35
22 13 11 18 23 33 35 12 5 11 8 8 7 6 10 7 4 8 11 12 11 6 5 4 4 5 4 2 2 2 6 5 6 6 6 6 5 0 2 2 6 13 11 5 7 6 3 2 6 4 3 3 2 1 1 1 3 4 5 4 6 9 8 5 2 2 3 5 3 3 7 3 2 2 3 4 4 4 3 5 8 9 12 16 17 19 23 30
18 13 13 21 30 35 26 7 6 10 8 8 8 9 13 11 10 11 10 12 11 7 7 7 6 7 4 2 4 4 6 6 6 6 4 4 3 2 2 6 7 9 8 3 6 10 7 4 7 6 4 4 4 4 5 4 4 6 6 6 8 8 5 3 1 1 4 6 7 6 8 2 3 1 1 3 3 3 3 4 6 9 11 13 16 18 21 26
10 7 12 27 39 38 25 14 12 10 10 12 11 14 15 11 15 19 15 13 14 10 7 7 7 7 3 2 3 4 7 6 4 4 2 1 1 1 1 5 6 5 5 2 5 12 8 3 8 11 9 9 8 7 7 7 6 6 6 7 10 10 8 5 3 5 7 5 8 9 7 2 3 1 1 1 2 3 5 6 7 8 10 12 15 17 19 24
6 4 6 17 29 28 20 18 17 10 10 13 10 12 16 12 12 18 18 15 16 16 10 5 5 6 4 6 7 7 10 7 1 2 3 3 2 1 1 3 3 2 4 3 5 8 2 2 8 11 7 4 3 2 6 10 9 8 8 10 11 10 10 6 4 6 5 3 6 10 6 3 4 5 4 4 5 5 5 7 8 9 11 14 16 18 19 24
5 4 5 7 11 12 9 10 12 9 11 15 9 7 16 16 9 11 17 15 16 19 12 2 5 9 8 11 11 9 11 9 5 5 5 5 2 1 0 1 2 1 2 4 6 5 1 5 10 10 4 2 2 2 4 11 13 12 12 13 12 10 10 11 10 7 4 2 7 7 9 10 9 9 9 8 8 7 7 9 10 11 14 17 17 18 21 25
6 3 6 8 5 5 6 8 9 10 12 14 9 7 13 18 13 10 14 13 13 16 11 4 10 16 15 14 11 7 8 9 8 8 7 5 4 1 1 1 2 3 1 1 3 3 2 6 8 7 6 3 3 3 2 3 6 7 11 14 13 13 13 14 14 9 6 7 9 6 12 14 11 9 11 10 9 8 8 10 11 11 13 16 17 18 21 25
7 2 4 8 4 1 3 6 6 7 9 8 8 9 12 17 18 12 8 7 8 12 13 11 15 18 18 16 11 8 9 9 9 9 7 6 6 5 3 1 3 4 2 2 1 0 2 4 4 5 8 5 3 1 1 0 1 3 8 12 13 14 15 14 15 14 12 13 12 6 9 12 9 8 8 7 8 8 9 12 13 13 15 17 19 19 22 24
8 4 4 6 3 1 1 4 5 4 5 4 4 7 9 14 18 13 7 8 9 10 14 18 19 16 16 16 13 12 14 13 10 9 10 9 6 6 6 4 3 3 2 3 2 1 2 3 2 4 6 5 3 3 2 1 1 4 8 12 14 14 13 13 14 13 12 14 12 8 10 12 7 7 6 7 8 9 11 13 13 14 16 19 20 21 22 22
12 8 6 5 2 2 2 1 3 3 4 4 2 3 6 11 15 13 7 6 9 9 12 20 20 11 8 13 16 16 14 11 6 8 16 15 10 10 8 5 7 6 4 4 4 3 3 2 2 3 5 3 1 2 3 4 2 6 13 17 16 11 9 11 11 10 12 14 10 8 11 10 4 7 7 8 10 10 11 13 12 12 15 18 20 21 21 20
16 12 9 6 2 4 5 1 2 5 6 5 6 6 6 8 10 10 5 3 5 5 8 15 15 7 5 12 17 14 11 13 8 7 15 15 9 9 7 6 11 10 6 5 3 3 5 4 3 4 5 1 2 2 5 4 1 6 11 11 13 12 11 11 10 11 14 13 9 8 11 6 5 7 6 7 8 10 12 14 14 15 17 18 19 20 19 18
Wind_Direction
180 184 186 186 190 191 195 198 201 200 199 197 195 194 188 187 182 177 176 175 176 178 182 191 274 310 326 329 330 328 327 325 329 334 319 294 294 256 193 153 131 107 79 52 43 33 23 15 340 354 348 351 38 49 57 44 13 268 247 244 237 180 127 126 154 112 114 125 125 122 27 306 253 139 254 293 236 224 273 225 128 167 240 251 284 299 298 298
187 190 189 189 192 191 195 197 199 200 198 198 195 194 194 193 189 187 186 185 191 199 210 252 286 300 317 323 327 330 330 333 340 335 318 315 279 160 148 138 124 103 70 48 39 17 327 286 296 324 293 261 50 56 106 32 337 299 287 246 252 70 87 68 82 92 94 119 119 125 52 314 311 19 348 291 247 242 271 188 141 128 90 13 312 310 307 308
203 204 202 201 201 201 204 202 203 204 203 204 204 203 202 201 200 198 199 203 211 228 244 262 280 297 312 321 327 332 334 333 338 302 331 53 140 144 140 136 122 94 52 36 28 8 330 290 272 288 276 254 76 73 139 26 323 348 289 255 94 87 102 101 107 94 73 84 140 163 81 297 292 337 304 301 293 270 266 86 135 136 77 2 310 309 318 338
219 220 219 216 215 216 216 214 213 211 212 212 212 213 212 212 211 209 213 218 223 235 247 260 278 293 306 319 324 332 325 310 239 199 167 132 142 141 142 138 116 36 6 7 4 0 356 296 283 295 263 233 115 213 186 35 343 323 294 349 92 116 145 136 138 104 83 42 292 270 273 271 249 292 292 295 290 263 94 52 4 310 343 306 294 298 325 28
230 230 228 227 225 224 223 223 221 219 219 218 218 219 218 219 218 217 220 225 230 240 252 264 280 293 305 317 322 332 317 292 157 159 162 150 150 147 164 201 294 312 334 342 345 348 354 279 258 250 250 223 155 221 121 69 319 266 321 53 101 157 170 135 141 129 118 295 278 255 260 273 260 275 275 274 288 328 79 19 324 290 265 257 272 256 172 4
241 238 235 233 231 229 228 227 226 225 226 225 225 224 225 227 227 228 230 234 241 249 259 272 286 296 307 316 320 325 307 302 115 171 179 167 183 196 235 268 288 302 320 331 338 334 335 247 246 234 253 240 215 256 93 107 281 267 141 121 144 205 195 133 150 174 174 237 244 247 265 306 279 267 254 262 285 284 301 307 315 286 227 199 196 160 335 296
248 244 242 238 235 233 231 231 229 230 230 231 232 231 234 234 236 238 240 247 252 259 267 279 289 298 308 314 321 318 288 289 277 242 234 233 242 252 266 277 286 297 312 321 320 305 281 247 252 238 256 246 215 224 98 156 242 273 212 145 158 204 233 168 164 193 202 228 240 254 276 267 262 259 224 218 218 246 268 286 290 274 145 134 114 90 294 264
254 251 247 242 239 236 234 234 232 233 234 235 237 237 241 242 244 246 248 256 260 265 273 279 287 297 302 308 324 305 265 253 256 255 253 256 261 268 274 280 285 292 299 287 270 278 258 248 253 238 257 270 201 171 110 250 222 246 286 132 155 213 232 222 200 218 220 231 240 241 255 254 245 247 230 189 169 238 250 246 228 124 111 128 136 260 263 273
260 260 255 248 243 239 236 236 234 235 236 236 239 239 244 246 248 252 253 260 264 269 275 278 285 291 294 302 311 289 257 236 252 258 254 258 263 268 273 276 280 286 289 279 259 257 249 257 251 244 288 3 310 264 136 262 230 228 350 108 207 232 230 233 238 240 230 229 224 226 251 245 214 223 224 171 181 220 203 200 190 123 102 248 255 263 277 308
259 263 262 255 249 244 239 238 235 235 236 237 239 239 243 246 250 254 256 261 264 269 274 277 283 283 286 288 271 270 246 242 263 260 258 263 262 265 269 270 273 274 275 279 259 237 244 259 235 240 282 304 241 270 192 266 353 25 335 288 263 257 246 236 242 244 234 229 215 229 261 232 166 212 216 156 190 199 160 178 178 146 216 260 261 268 289 307
258 260 261 257 253 249 245 242 239 237 237 237 237 239 240 244 248 251 255 259 261 267 271 274 278 276 279 267 249 256 248 253 271 272 267 267 261 261 261 260 261 246 241 266 258 229 235 239 219 232 260 218 185 181 213 268 359 349 313 290 260 248 247 235 236 237 226 228 211 226 259 186 160 211 176 143 173 170 152 166 174 193 222 242 253 262 270 275
259 258 257 254 252 252 252 249 245 242 240 238 237 238 239 241 244 248 252 255 258 263 265 268 271 269 270 259 248 252 256 262 272 274 266 261 258 258 256 252 245 234 228 255 265 252 243 226 206 228 272 304 229 184 171 163 289 297 280 289 275 253 246 227 218 217 214 205 178 205 243 209 193 183 132 144 164 158 163 169 168 204 226 237 247 253 255 248
261 258 253 250 248 250 253 252 250 247 244 242 241 238 238 240 241 243 247 251 255 258 261 264 265 266 264 255 250 255 261 265 270 269 261 255 253 252 251 246 236 237 244 253 260 255 241 216 200 219 259 280 274 201 108 150 210 272 247 266 292 272 239 178 158 179 196 167 159 198 261 212 181 150 129 153 164 164 175 175 172 190 207 237 247 261 283 285
257 256 252 247 247 250 252 254 254 252 249 247 245 242 240 239 240 242 245 249 253 256 259 260 263 264 256 255 259 262 264 265 264 260 256 249 247 248 246 243 241 250 261 259 253 242 225 204 195 216 234 256 275 163 245 213 214 262 262 240 259 272 198 134 146 177 182 158 168 209 276 219 151 137 139 160 167 173 184 177 174 174 170 211 220 168 318 307
253 253 251 249 248 248 250 252 253 253 252 248 245 244 240 240 241 243 246 249 252 255 258 259 260 257 257 261 264 265 263 259 255 253 250 244 241 244 244 246 253 258 259 247 230 216 205 185 195 221 198 194 193 227 255 245 230 237 260 251 226 244 176 140 151 195 198 157 177 209 270 212 147 145 146 157 171 184 197 186 173 175 169 174 168 143 140 257
250 249 250 253 251 249 249 248 249 250 250 248 245 243 242 243 244 246 251 252 254 255 255 256 247 240 256 261 257 263 260 250 249 249 245 241 235 236 246 252 255 250 236 219 206 195 187 174 205 229 178 202 220 241 260 258 250 222 229 263 249 245 242 162 144 199 215 165 186 210 259 289 140 150 154 157 173 189 201 193 176 175 170 167 168 162 161 151
247 247 250 253 254 255 252 248 245 241 242 245 244 245 246 248 250 252 254 252 254 251 246 246 243 246 251 252 254 258 255 249 247 247 240 239 236 236 244 240 224 221 203 194 191 181 180 176 199 219 216 234 233 234 249 249 254 227 208 248 260 258 261 242 149 158 178 201 216 212 242 273 164 152 166 173 176 191 204 196 182 176 170 173 170 167 172 159
245 247 249 252 254 256 255 251 245 237 237 239 241 244 246 250 253 253 253 250 246 245 248 229 210 258 249 234 236 239 248 252 245 242 237 232 231 226 221 211 196 180 171 181 183 179 185 184 199 236 230 226 220 215 222 237 264 274 241 252 269 252 243 255 227 153 174 205 243 232 238 263 230 161 168 177 178 195 205 188 181 177 171 177 173 177 179 174
243 246 249 252 254 253 254 252 247 241 235 234 236 239 243 250 256 256 250 237 213 201 248 212 197 226 267 219 224 232 246 253 238 233 228 221 217 205 197 195 182 175 180 186 182 186 193 189 199 234 236 221 214 213 226 245 276 301 289 285 287 270 254 266 154 132 185 225 245 251 253 263 258 192 170 175 183 197 198 179 177 179 178 180 176 185 179 174
240 243 246 250 252 251 249 247 246 242 235 233 227 222 232 235 241 251 234 228 228 229 244 228 211 233 258 230 231 233 236 235 225 218 218 214 198 182 179 175 174 193 210 205 184 178 192 210 215 222 233 235 227 221 232 254 283 297 288 280 275 270 270 274 134 121 170 255 252 255 261 264 268 252 184 170 180 192 195 188 186 184 182 185 180 182 179 185
237 239 240 244 248 249 248 246 243 238 235 233 215 198 205 218 226 235 215 237 250 246 244 242 231 234 238 237 236 229 212 208 212 211 212 201 179 172 176 176 182 207 214 206 174 137 188 223 228 230 239 251 251 231 233 250 262 264 270 270 265 257 265 271 155 124 142 238 264 262 265 258 263 268 195 164 183 197 198 196 193 188 180 184 184 181 181 195
235 238 238 239 241 243 246 250 249 242 235 230 215 204 208 220 229 243 260 268 266 252 245 241 236 238 238 237 236 229 211 196 200 209 205 185 180 188 181 181 205 212 187 180 164 171 216 230 233 235 237 216 243 243 236 247 251 255 256 255 260 255 264 264 160 133 159 231 273 271 271 265 266 267 196 173 197 193 189 193 188 186 183 185 186 181 184 189
232 236 239 240 239 236 237 247 252 248 240 231 221 214 217 226 233 248 269 279 272 252 242 239 238 236 232 232 234 223 211 209 205 206 201 184 184 200 190 185 214 214 180 185 205 220 227 236 233 225 202 187 215 218 222 242 244 242 239 241 250 245 255 257 165 134 186 233 285 293 282 272 267 260 195 168 188 159 161 186 182 186 187 185 184 180 180 180
235 233 236 239 238 232 230 240 245 246 245 237 229 220 218 226 231 252 267 269 271 246 236 240 237 231 223 226 232 219 212 225 220 205 202 190 180 195 201 202 217 219 203 204 214 230 240 255 202 197 194 214 227 212 208 231 240 230 228 232 247 245 243 253 257 122 234 233 245 272 279 272 254 240 203 143 153 167 176 188 191 196 189 182 187 184 179 177
241 236 237 236 232 224 224 236 241 243 244 238 234 223 211 207 203 247 285 269 261 229 226 234 230 230 222 219 225 212 211 231 224 209 205 195 181 180 197 207 217 226 219 213 219 238 242 181 137 181 193 212 223 220 207 215 246 242 223 220 239 256 257 265 283 319 285 260 195 224 274 281 229 222 200 151 168 191 184 190 196 191 186 186 191 191 188 186
238 237 237 229 222 219 223 238 246 245 241 238 235 219 204 193 180 197 312 279 263 203 178 208 211 220 213 207 199 185 215 230 209 207 206 196 191 186 188 196 209 238 229 215 228 251 226 142 155 181 184 199 216 228 209 202 242 261 221 203 229 255 263 265 268 254 278 286 139 193 267 279 244 219 181 158 181 186 177 194 194 182 183 185 184 185 186 189
231 229 229 218 211 219 223 230 240 236 230 237 234 207 193 183 165 138 126 270 264 169 149 175 187 188 191 191 181 170 196 176 175 200 199 193 195 193 205 195 182 231 221 193 228 224 151 161 173 178 190 205 214 230 211 197 229 261 50 161 212 243 252 248 246 237 262 291 223 198 241 277 274 245 173 165 189 190 184 194 190 182 183 182 181 180 177 179
230 221 219 213 212 222 226 226 233 229 222 235 226 192 178 168 158 132 169 256 255 132 147 164 166 170 162 170 176 172 120 138 155 196 188 188 191 187 218 216 202 212 184 182 222 185 151 179 184 186 201 213 214 235 197 190 221 246 69 71 147 235 258 244 239 242 257 277 253 208 203 256 267 233 161 168 211 220 202 191 186 185 183 179 179 177 175 179
233 220 213 216 220 223 227 229 231 233 228 219 192 178 166 155 149 126 228 245 183 109 132 144 147 156 146 160 180 178 132 142 159 175 176 186 186 175 225 224 228 227 192 204 231 248 108 192 198 197 211 216 183 47 82 193 213 144 114 90 88 99 224 220 237 247 246 251 253 226 197 228 276 240 178 178 236 234 207 184 183 182 178 176 176 172 173 181
235 224 212 218 224 220 223 229 232 235 227 198 175 165 158 152 144 156 205 225 218 121 111 139 151 153 151 157 182 190 169 142 87 140 158 181 185 188 226 194 226 236 198 219 240 238 87 78 292 219 221 183 112 68 33 44 126 137 142 119 120 149 155 202 234 238 254 252 246 233 213 216 272 260 192 182 248 195 164 168 175 172 171 171 170 170 172 179
231 223 212 217 223 219 219 224 230 229 208 180 167 158 155 156 141 195 201 235 301 154 126 145 147 148 162 165 174 191 189 156 134 150 154 153 178 194 188 167 198 216 211 231 235 211 164 167 180 174 152 111 110 94 51 53 124 155 168 160 165 184 171 216 221 202 249 254 238 240 221 214 233 249 168 108 85 106 129 166 171 165 167 167 165 167 168 176
233 222 214 214 219 221 220 224 231 217 188 175 165 159 158 164 218 220 200 92 134 182 151 153 157 161 176 183 179 178 178 165 164 171 172 167 178 192 196 191 174 185 224 222 207 201 208 205 172 131 154 172 160 133 104 98 183 191 185 178 198 221 207 225 217 205 237 244 104 72 187 218 236 248 244 134 112 106 75 138 165 163 163 161 160 163 166 174
241 226 216 212 216 221 222 228 230 204 185 176 165 161 164 192 210 220 205 168 169 162 133 147 168 174 179 189 190 164 165 173 173 180 183 181 193 201 208 211 194 202 240 200 188 188 203 206 178 159 176 194 191 182 170 171 184 192 189 183 199 215 226 237 227 228 238 216 70 103 170 233 251 251 254 136 104 99 75 85 149 160 158 156 158 161 170 177
242 232 223 218 219 219 220 226 220 196 185 174 165 167 189 215 219 212 209 213 220 65 116 148 161 171 181 191 174 154 167 183 168 176 184 183 202 210 207 214 210 217 244 194 197 195 210 234 182 178 172 178 192 211 206 175 175 194 196 196 209 216 236 245 232 240 242 129 110 152 176 223 220 174 85 91 93 95 94 95 125 146 150 151 155 165 175 179
239 238 231 224 220 216 218 223 214 194 183 173 166 182 193 213 228 205 210 214 193 110 120 145 150 167 191 194 164 169 189 207 171 177 194 191 207 211 201 208 206 206 207 209 210 195 221 251 158 153 139 167 184 211 199 168 172 191 191 206 223 226 245 264 245 261 11 31 193 183 221 250 189 125 118 125 122 116 112 116 129 141 146 151 157 169 178 181
240 239 232 225 221 217 217 218 209 193 183 172 166 210 201 214 227 189 207 210 196 152 126 153 166 178 197 188 176 186 191 184 174 179 209 210 222 222 211 206 197 198 200 198 193 182 213 244 115 112 103 171 185 182 172 184 172 168 185 200 203 347 335 232 212 111 69 277 236 171 220 255 200 173 148 145 153 146 142 146 151 152 151 157 166 174 181 184
238 233 227 225 224 220 214 214 207 191 183 178 188 212 206 218 215 181 216 224 190 155 145 191 193 185 200 193 185 187 177 162 176 185 199 197 223 223 215 213 197 199 205 205 219 204 205 238 143 163 172 149 3 73 152 312 23 152 189 180 126 42 334 253 251 227 219 258 246 178 211 221 206 209 151 155 177 174 173 167 164 166 163 167 177 181 185 188
238 231 225 226 226 220 212 212 204 188 182 183 206 219 217 210 209 194 46 317 179 167 185 223 198 184 202 203 188 178 175 175 176 188 194 184 215 204 194 207 204 200 205 210 240 219 203 231 168 164 176 130 61 165 168 230 288 230 236 162 137 211 217 197 226 246 234 244 250 210 213 219 217 205 156 178 194 185 179 173 173 179 176 179 183 184 188 190
236 229 227 228 224 218 213 206 193 183 183 189 205 218 226 208 210 201 182 237 255 197 210 225 214 206 210 215 202 169 175 187 169 177 201 190 201 188 180 193 203 202 201 199 212 197 191 229 211 148 109 135 151 203 194 184 183 323 268 190 176 248 221 200 208 233 240 239 251 234 207 218 223 204 181 192 195 179 172 174 186 190 186 185 183 184 190 192
227 223 236 231 222 218 212 197 183 179 189 204 202 213 212 205 211 206 201 210 244 235 225 228 228 226 220 222 214 171 178 198 175 181 208 186 180 188 184 191 196 197 197 193 203 199 169 223 224 131 117 161 180 204 202 189 178 182 197 192 188 185 195 259 231 223 247 243 248 254 250 229 192 195 190 190 182 171 172 178 187 190 189 188 187 189 194 196
219 218 243 227 221 215 202 188 179 182 195 208 216 226 213 212 219 210 207 207 219 243 257 255 239 237 231 216 206 169 172 200 191 193 210 191 200 211 186 194 193 175 176 188 206 206 186 200 199 162 178 201 208 208 221 223 198 191 196 196 192 185 175 209 220 199 217 250 247 264 272 257 108 40 34 72 83 138 163 174 181 185 188 190 193 196 198 199
208 218 231 214 218 205 190 182 183 184 196 212 215 219 208 218 230 207 200 200 215 231 229 240 227 213 232 216 217 165 163 194 200 198 217 208 211 219 159 184 184 164 159 180 197 187 165 199 194 179 185 195 181 38 7 312 268 229 225 210 195 191 191 205 214 177 171 226 284 292 275 276 82 34 44 66 51 60 113 157 174 184 189 192 195 196 199 202
202 212 207 201 216 201 185 187 206 184 208 217 199 214 212 216 228 202 193 195 205 208 199 217 219 213 224 187 172 190 179 199 208 200 226 222 208 204 125 174 179 169 169 186 187 158 91 190 193 169 143 145 113 114 138 328 287 250 245 220 207 206 199 207 223 131 182 202 162 215 248 241 78 31 37 69 72 69 98 153 165 172 183 190 193 194 199 203
203 202 175 181 202 197 184 189 192 192 220 201 192 220 215 222 228 209 198 193 191 190 198 213 214 214 230 161 159 195 189 203 222 211 221 223 189 75 151 194 196 188 191 195 170 166 166 190 189 180 182 183 188 209 210 199 200 221 224 209 215 207 164 131 104 131 233 207 170 213 244 199 107 74 55 79 95 118 136 154 167 167 170 180 188 192 197 201
199 192 176 178 189 190 190 198 189 194 213 199 205 214 207 221 225 215 214 204 197 199 201 218 211 190 182 144 159 200 199 200 224 210 199 215 199 64 160 207 210 210 235 290 147 167 181 197 187 194 203 197 203 220 207 180 176 208 211 193 206 204 174 161 176 209 228 186 167 214 239 139 115 161 174 154 171 163 144 153 177 177 173 177 184 189 193 198
187 192 184 182 193 200 205 204 194 191 203 203 212 211 206 218 218 209 212 211 208 208 204 211 190 167 171 185 187 207 209 203 185 196 206 189 177 22 5 229 248 226 227 230 165 164 187 253 207 215 219 195 220 242 134 137 159 190 188 182 197 202 188 183 207 216 204 160 199 219 219 203 190 188 207 208 195 199 178 166 174 182 189 193 193 194 197 203
194 203 180 176 208 223 230 216 202 196 197 197 199 202 206 215 217 201 204 211 211 207 209 219 181 189 195 193 201 214 204 200 200 202 207 182 142 14 359 251 311 266 192 191 172 153 154 224 217 224 220 116 33 336 132 150 174 185 179 185 195 191 184 196 216 210 140 167 242 201 180 221 220 186 198 203 191 206 202 179 180 190 200 203 201 201 203 206
203 222 188 179 192 216 224 219 211 211 205 196 197 204 205 210 213 201 200 212 210 198 200 216 209 212 208 197 207 210 187 200 213 207 200 172 141 130 127 358 295 243 194 158 169 141 186 222 219 218 215 149 74 343 318 154 173 180 180 189 193 188 189 200 216 214 171 209 244 174 173 218 227 195 200 197 188 199 193 185 189 191 193 194 192 197 205 209
205 245 193 189 194 231 205 187 181 211 221 209 208 213 208 209 211 206 190 191 202 198 197 211 219 217 213 210 213 201 185 195 208 206 196 175 163 157 152 218 254 227 172 133 173 91 199 220 211 203 221 220 135 136 298 61 195 228 212 207 202 199 197 197 211 217 210 227 246 220 206 234 232 205 201 188 183 181 168 174 180 179 184 188 190 198 206 209
209 218 177 176 199 357 136 161 153 186 225 229 228 224 220 215 211 208 190 179 197 202 198 214 223 213 209 214 213 214 210 203 206 202 178 170 179 184 185 182 173 180 171 160 166 188 194 200 162 171 213 221 149 119 107 108 233 254 247 235 222 210 197 198 211 214 216 235 244 239 250 256 223 176 158 154 167 161 161 177 181 180 188 190 193 202 209 210
222 217 188 168 184 164 147 158 157 185 220 216 220 229 232 232 220 208 198 197 211 209 200 215 221 207 197 209 213 222 211 183 181 184 174 178 180 176 183 167 147 161 177 171 164 165 180 177 119 163 200 203 118 118 112 72 32 270 259 245 229 214 192 195 211 208 209 228 234 228 247 250 171 137 141 155 168 174 183 189 184 186 197 201 205 213 217 217
226 222 204 188 195 172 163 116 151 204 221 205 203 209 219 246 237 216 213 218 214 221 222 221 216 189 174 205 212 211 167 133 119 152 177 190 179 159 167 158 156 167 170 164 164 159 166 163 145 173 185 167 10 134 128 89 55 258 255 229 207 213 211 202 213 215 211 217 218 220 236 231 129 137 165 168 178 194 199 195 189 195 207 214 217 216 214 213